Location: Kelshall
(52.0000°N, 0.0500°W)
Time: 20:09:01
(UTC+00:00)

ATLAS 2AS CENTAUR R/B - Pass Details

Date: 20 January 2021
Orbit: 947 x 1265 km, 63.7° (Epoch: 13 February)

Event Time Altitude Azimuth Distance (km) Brightness Sun altitude
Rises 20:01:47 0° 282° (WNW) 4,220 6.9 -32.5°
Reaches altitude 10° 20:04:58 10° 291° (WNW) 3,238 6.0 -32.9°
Maximum altitude 20:12:01 35° 355° (N) 1,877 4.0 -34.0°
Enters shadow 20:12:55 34° 8° (N) 1,898 3.9 -34.1°
